Cloud_Cover
100 100 100 100 100 100 100 100 100 100 100 100 100 100 100 100 100 100 100 100 100 100 100 100 100 30 3 58 86 79 26 18
100 100 100 100 100 100 100 43 74 100 100 100 100 100 100 100 100 100 45 98 78 40 10 4 4 20 25 17 50 5 5 3
100 100 100 100 75 96 100 99 100 100 100 100 100 98 100 98 87 100 100 94 100 90 66 54 5 5 5 5 5 4 5 5
100 100 100 100 100 100 71 38 34 32 12 57 100 89 100 100 100 49 38 35 56 80 27 5 5 5 5 5 51 83 86 52
83 81 100 100 100 100 100 100 100 100 100 100 100 100 100 100 86 21 25 5 17 5 5 38 5 5 5 27 46 100 97 86
84 99 100 100 100 100 100 100 100 84 54 25 17 32 64 100 72 100 100 82 79 99 63 50 6 74 81 94 100 100 100 98
92 56 28 14 32 54 49 40 39 17 13 91 100 90 100 100 91 100 95 100 85 51 80 81 82 62 70 71 33 72 94 61
23 5 50 74 68 51 11 5 67 5 96 100 100 100 100 100 100 100 100 100 85 100 100 100 80 98 100 93 70 60 75 5
5 6 6 5 5 5 8 28 98 96 74 100 94 100 100 100 100 100 98 100 100 100 100 99 98 100 100 100 88 95 33 5
19 6 5 5 5 6 98 100 100 93 100 52 62 12 100 100 100 100 100 100 100 100 88 99 100 100 100 99 100 62 6 8
100 94 23 4 0 59 100 100 75 31 36 6 30 100 100 100 100 100 100 96 100 100 97 100 100 100 78 39 79 69 87 99
100 42 5 1 5 5 46 68 17 4 14 63 100 100 100 100 100 91 100 100 100 100 99 100 99 60 94 65 70 100 100 94
57 5 5 5 5 51 73 7 5 35 100 100 100 100 100 100 100 99 100 100 100 100 100 34 44 96 87 100 89 100 100 100
5 5 5 6 76 32 5 5 31 100 100 100 100 86 63 53 60 96 97 97 100 100 100 100 100 89 97 100 100 100 76 59
5 5 5 12 2 5 5 5 5 21 74 80 49 5 8 50 57 20 42 73 99 100 100 100 100 100 100 100 100 100 97 98
4 5 3 0 5 5 5 5 5 5 5 5 5 5 7 16 6 58 100 100 100 100 100 100 98 100 100 100 99 100 100 100
0 0 0 5 6 14 5 5 6 5 5 5 5 5 5 72 100 100 100 100 100 100 100 93 98 98 100 100 100 74 100 100
1 4 4 1 5 5 5 5 5 5 5 6 41 51 39 51 100 100 100 100 100 100 100 100 100 100 100 99 100 95 100 100
5 2 0 0 0 5 2 1 5 5 26 39 23 10 80 76 96 95 100 97 100 100 100 100 100 100 100 100 100 100 97 100